When you browse on this site, cookies collect data to enhance your experience and personalize the content and advertising you see.
Visit our Privacy Policy to learn more. By continuing to use the site, you agree to this use of cookies and data.
  • In Slovakia
  • List of Countries
  • For 7 days
  • Water Temperature
  • Satellite Maps
  • Weather Map
  • Weather Widgets
  • user-avatar
    Login

    Hourly Weather Biskira

    Today, 20 June, Thursday

    Time Temperature Precipitation Wind Pressure Humidity
    00:00 +37°C° 0 mm 2 mps 750 mmHg 20%
    01:00 +36°C° 0 mm 3 mps 750 mmHg 20%
    02:00 +36°C° 0 mm 3 mps 750 mmHg 21%
    03:00 +35°C° 0 mm 3 mps 750 mmHg 21%
    04:00 +36°C° 0 mm 3 mps 750 mmHg 21%
    05:00 +36°C° 0 mm 4 mps 750 mmHg 20%
    06:00 +36°C° 0 mm 4 mps 750 mmHg 20%
    07:00 +37°C° 0 mm 4 mps 751 mmHg 18%
    08:00 +40°C° 0 mm 4 mps 751 mmHg 15%
    09:00 +41°C° 0 mm 5 mps 751 mmHg 13%
    10:00 +42°C° 0 mm 4 mps 751 mmHg 12%
    11:00 +43°C° 0 mm 4 mps 751 mmHg 11%
    12:00 +44°C° 0 mm 4 mps 750 mmHg 10%
    13:00 +45°C° 0 mm 4 mps 750 mmHg 9%
    14:00 +47°C° 0 mm 5 mps 749 mmHg 9%
    15:00 +48°C° 0 mm 6 mps 749 mmHg 8%
    16:00 +47°C° 0 mm 6 mps 749 mmHg 8%
    17:00 +47°C° 0 mm 6 mps 749 mmHg 8%
    18:00 +46°C° 0 mm 6 mps 749 mmHg 9%
    19:00 +45°C° 0 mm 5 mps 749 mmHg 10%
    20:00 +42°C° 0 mm 5 mps 749 mmHg 11%
    21:00 +41°C° 0 mm 5 mps 749 mmHg 12%
    22:00 +40°C° 0 mm 5 mps 750 mmHg 13%
    23:00 +39°C° 0 mm 5 mps 750 mmHg 14%

    Tomorrow, 21 June, Friday

    Time Temperature Precipitation Wind Pressure Humidity
    00:00 +39°C° 0 mm 5 mps 750 mmHg 15%
    01:00 +37°C° 0 mm 5 mps 749 mmHg 15%
    02:00 +37°C° 0 mm 5 mps 749 mmHg 16%
    03:00 +36°C° 0 mm 4 mps 749 mmHg 17%
    04:00 +36°C° 0 mm 6 mps 749 mmHg 18%
    05:00 +38°C° 0 mm 7 mps 750 mmHg 19%
    06:00 +38°C° 0 mm 8 mps 750 mmHg 20%
    07:00 +39°C° 0 mm 8 mps 750 mmHg 19%
    08:00 +40°C° 0 mm 8 mps 750 mmHg 18%
    09:00 +41°C° 0 mm 8 mps 751 mmHg 17%
    10:00 +44°C° 0 mm 7 mps 750 mmHg 14%
    11:00 +46°C° 0 mm 6 mps 750 mmHg 12%
    12:00 +47°C° 0 mm 5 mps 750 mmHg 9%
    13:00 +48°C° 0 mm 6 mps 749 mmHg 8%
    14:00 +50°C° 0 mm 7 mps 749 mmHg 7%
    15:00 +51°C° 0 mm 7 mps 748 mmHg 6%
    16:00 +50°C° 0 mm 7 mps 748 mmHg 7%
    17:00 +48°C° 0 mm 6 mps 748 mmHg 7%
    18:00 +48°C° 0 mm 6 mps 748 mmHg 7%
    19:00 +46°C° 0 mm 5 mps 748 mmHg 8%
    20:00 +43°C° 0 mm 5 mps 749 mmHg 9%
    21:00 +42°C° 0 mm 4 mps 749 mmHg 10%
    22:00 +41°C° 0 mm 4 mps 749 mmHg 11%
    23:00 +40°C° 0 mm 4 mps 749 mmHg 11%

    Day after tomorrow, 22 June, Saturday

    Time Temperature Precipitation Wind Pressure Humidity
    00:00 +38°C° 0 mm 3 mps 749 mmHg 12%
    01:00 +38°C° 0 mm 4 mps 749 mmHg 13%
    02:00 +38°C° 0 mm 6 mps 749 mmHg 13%
    03:00 +38°C° 0 mm 7 mps 749 mmHg 14%
    04:00 +38°C° 0 mm 7 mps 749 mmHg 16%
    05:00 +38°C° 0 mm 6 mps 750 mmHg 17%
    06:00 +38°C° 0 mm 6 mps 750 mmHg 19%
    07:00 +40°C° 0 mm 7 mps 750 mmHg 17%
    08:00 +41°C° 0 mm 7 mps 750 mmHg 16%
    09:00 +43°C° 0 mm 7 mps 750 mmHg 14%
    10:00 +45°C° 0 mm 7 mps 750 mmHg 12%
    11:00 +46°C° 0 mm 6 mps 750 mmHg 10%
    12:00 +48°C° 0 mm 6 mps 750 mmHg 9%
    13:00 +48°C° 0 mm 6 mps 749 mmHg 8%
    14:00 +49°C° 0 mm 6 mps 749 mmHg 7%
    15:00 +51°C° 0 mm 7 mps 748 mmHg 6%
    16:00 +49°C° 0 mm 6 mps 748 mmHg 7%
    17:00 +49°C° 0 mm 6 mps 748 mmHg 7%
    18:00 +48°C° 0 mm 6 mps 748 mmHg 7%
    19:00 +46°C° 0 mm 5 mps 748 mmHg 8%
    20:00 +45°C° 0 mm 5 mps 749 mmHg 9%
    21:00 +42°C° 0 mm 5 mps 749 mmHg 10%
    22:00 +41°C° 0 mm 5 mps 749 mmHg 10%
    23:00 +40°C° 0 mm 4 mps 749 mmHg 11%

    23 June, Sunday

    Time Temperature Precipitation Wind Pressure Humidity
    00:00 +38°C° 0 mm 4 mps 749 mmHg 12%
    01:00 +39°C° 0 mm 5 mps 749 mmHg 13%
    02:00 +38°C° 0 mm 6 mps 749 mmHg 15%
    03:00 +38°C° 0 mm 7 mps 749 mmHg 16%
    04:00 +38°C° 0 mm 7 mps 749 mmHg 16%
    05:00 +39°C° 0 mm 7 mps 750 mmHg 15%
    06:00 +39°C° 0 mm 7 mps 750 mmHg 15%
    07:00 +40°C° 0 mm 7 mps 750 mmHg 14%
    08:00 +43°C° 0 mm 7 mps 751 mmHg 13%
    09:00 +44°C° 0 mm 7 mps 751 mmHg 11%
    10:00 +45°C° 0 mm 7 mps 751 mmHg 10%
    11:00 +47°C° 0 mm 6 mps 751 mmHg 8%
    12:00 +48°C° 0 mm 5 mps 750 mmHg 6%
    13:00 +49°C° 0 mm 5 mps 750 mmHg 6%
    14:00 +49°C° 0 mm 6 mps 750 mmHg 5%
    15:00 +51°C° 0 mm 6 mps 749 mmHg 5%
    16:00 +49°C° 0 mm 6 mps 749 mmHg 5%
    17:00 +49°C° 0 mm 6 mps 749 mmHg 5%
    18:00 +48°C° 0 mm 6 mps 749 mmHg 6%
    19:00 +46°C° 0 mm 5 mps 750 mmHg 7%
    20:00 +43°C° 0 mm 4 mps 750 mmHg 7%
    21:00 +42°C° 0 mm 4 mps 751 mmHg 8%
    22:00 +41°C° 0 mm 4 mps 751 mmHg 9%
    23:00 +40°C° 0 mm 4 mps 751 mmHg 9%

    24 June, Monday

    Time Temperature Precipitation Wind Pressure Humidity
    00:00 +40°C° 0 mm 4 mps 751 mmHg 10%
    01:00 +38°C° 0 mm 4 mps 751 mmHg 11%
    02:00 +37°C° 0 mm 4 mps 751 mmHg 12%
    03:00 +37°C° 0 mm 4 mps 750 mmHg 13%
    04:00 +37°C° 0 mm 4 mps 751 mmHg 13%
    05:00 +37°C° 0 mm 4 mps 751 mmHg 13%
    06:00 +38°C° 0 mm 4 mps 752 mmHg 13%
    07:00 +41°C° 0 mm 5 mps 752 mmHg 12%
    08:00 +42°C° 0 mm 6 mps 752 mmHg 11%
    09:00 +45°C° 0 mm 7 mps 752 mmHg 10%
    10:00 +46°C° 0 mm 7 mps 752 mmHg 9%
    11:00 +47°C° 0 mm 7 mps 752 mmHg 8%
    12:00 +49°C° 0 mm 7 mps 751 mmHg 7%
    13:00 +49°C° 0 mm 6 mps 751 mmHg 6%
    14:00 +49°C° 0 mm 6 mps 751 mmHg 5%
    15:00 +50°C° 0 mm 5 mps 751 mmHg 5%
    16:00 +49°C° 0 mm 5 mps 751 mmHg 5%
    17:00 +48°C° 0 mm 5 mps 751 mmHg 5%
    18:00 +48°C° 0 mm 5 mps 751 mmHg 5%
    19:00 +45°C° 0 mm 4 mps 751 mmHg 6%
    20:00 +43°C° 0 mm 3 mps 752 mmHg 7%
    21:00 +40°C° 0 mm 2 mps 752 mmHg 8%
    22:00 +39°C° 0 mm 2 mps 752 mmHg 9%
    23:00 +39°C° 0 mm 2 mps 752 mmHg 9%

    25 June, Tuesday

    Time Temperature Precipitation Wind Pressure Humidity
    00:00 +38°C° 0 mm 2 mps 752 mmHg 10%
    01:00 +37°C° 0 mm 3 mps 752 mmHg 10%
    02:00 +37°C° 0 mm 3 mps 752 mmHg 10%
    03:00 +37°C° 0 mm 3 mps 752 mmHg 10%
    04:00 +37°C° 0 mm 3 mps 752 mmHg 12%
    05:00 +37°C° 0 mm 3 mps 752 mmHg 14%
    06:00 +37°C° 0 mm 3 mps 753 mmHg 16%
    07:00 +40°C° 0 mm 4 mps 753 mmHg 15%
    08:00 +42°C° 0 mm 4 mps 753 mmHg 13%
    09:00 +44°C° 0 mm 4 mps 753 mmHg 12%
    10:00 +45°C° 0 mm 4 mps 753 mmHg 11%
    11:00 +47°C° 0 mm 4 mps 753 mmHg 10%
    12:00 +48°C° 0 mm 4 mps 752 mmHg 8%
    13:00 +49°C° 0 mm 4 mps 752 mmHg 7%
    14:00 +49°C° 0 mm 4 mps 752 mmHg 7%
    15:00 +50°C° 0 mm 4 mps 751 mmHg 6%
    16:00 +49°C° 0 mm 4 mps 751 mmHg 6%
    17:00 +48°C° 0 mm 4 mps 752 mmHg 6%
    18:00 +47°C° 0 mm 3 mps 752 mmHg 6%
    19:00 +45°C° 0 mm 3 mps 752 mmHg 7%
    20:00 +43°C° 0 mm 3 mps 753 mmHg 9%
    21:00 +40°C° 0 mm 3 mps 753 mmHg 10%
    22:00 +39°C° 0 mm 3 mps 753 mmHg 12%
    23:00 +39°C° 0 mm 2 mps 753 mmHg 13%
    Show more